When you browse on this site, cookies collect data to enhance your experience and personalize the content and advertising you see.
Visit our Privacy Policy to learn more. By continuing to use the site, you agree to this use of cookies and data.
  • En España
  • Lista de países
  • Para 7 días
  • Temperatura del agua
  • El tiempo en el mapa
  • Informadores
  • user-avatar
    Iniciar sesión

    Tiempo cada hora Encamp

    Hoy, 23 Octubre, Miércoles

    Tiempo Temperatura Precipitaciones Viento Presión Humedad
    00:00 +8°C° 8.1 mm 2 mps 618 mmHg 98%
    01:00 +8°C° 4.6 mm 2 mps 617 mmHg 98%
    02:00 +8°C° 4.6 mm 1 mps 616 mmHg 97%
    03:00 +8°C° 4.6 mm 1 mps 615 mmHg 97%
    04:00 +8°C° 2.5 mm 1 mps 616 mmHg 97%
    05:00 +9°C° 2.5 mm 1 mps 616 mmHg 98%
    06:00 +8°C° 2.5 mm 2 mps 616 mmHg 98%
    07:00 +8°C° 1.2 mm 2 mps 616 mmHg 97%
    08:00 +8°C° 1.2 mm 2 mps 616 mmHg 96%
    09:00 +8°C° 1.2 mm 2 mps 617 mmHg 95%
    10:00 +9°C° 0.3 mm 2 mps 617 mmHg 88%
    11:00 +9°C° 0.3 mm 2 mps 617 mmHg 81%
    12:00 +10°C° 0.3 mm 2 mps 617 mmHg 73%
    13:00 +9°C° 0 mm 2 mps 617 mmHg 71%
    14:00 +9°C° 0 mm 2 mps 617 mmHg 69%
    15:00 +9°C° 0 mm 2 mps 617 mmHg 67%
    16:00 +7°C° 0.1 mm 2 mps 616 mmHg 76%
    17:00 +6°C° 0.1 mm 2 mps 616 mmHg 84%
    18:00 +4°C° 0.1 mm 2 mps 616 mmHg 93%
    19:00 +4°C° 0 mm 2 mps 616 mmHg 93%
    20:00 +4°C° 0 mm 2 mps 616 mmHg 93%
    21:00 +5°C° 0 mm 1 mps 617 mmHg 92%
    22:00 +5°C° 0 mm 1 mps 617 mmHg 92%
    23:00 +4°C° 0 mm 1 mps 617 mmHg 92%

    Mañana, 24 Octubre, Jueves

    Tiempo Temperatura Precipitaciones Viento Presión Humedad
    00:00 +4°C° 0 mm 1 mps 617 mmHg 92%
    01:00 +3°C° 0 mm 1 mps 617 mmHg 92%
    02:00 +3°C° 0 mm 1 mps 617 mmHg 91%
    03:00 +2°C° 0 mm 1 mps 617 mmHg 90%
    04:00 +2°C° 0 mm 1 mps 617 mmHg 90%
    05:00 +2°C° 0 mm 1 mps 618 mmHg 90%
    06:00 +2°C° 0 mm 1 mps 618 mmHg 89%
    07:00 +4°C° 0 mm 1 mps 619 mmHg 83%
    08:00 +5°C° 0 mm 1 mps 620 mmHg 77%
    09:00 +7°C° 0 mm 1 mps 622 mmHg 71%
    10:00 +8°C° 0 mm 1 mps 622 mmHg 67%
    11:00 +9°C° 0 mm 1 mps 623 mmHg 63%
    12:00 +10°C° 0 mm 1 mps 623 mmHg 59%
    13:00 +10°C° 0 mm 1 mps 623 mmHg 61%
    14:00 +10°C° 0 mm 1 mps 623 mmHg 62%
    15:00 +8°C° 0 mm 2 mps 623 mmHg 63%
    16:00 +8°C° 0.2 mm 1 mps 623 mmHg 73%
    17:00 +7°C° 0.2 mm 1 mps 623 mmHg 82%
    18:00 +5°C° 0.2 mm 1 mps 623 mmHg 92%
    19:00 +4°C° 0.1 mm 2 mps 623 mmHg 92%
    20:00 +4°C° 0.1 mm 2 mps 624 mmHg 92%
    21:00 +4°C° 0.1 mm 2 mps 624 mmHg 92%
    22:00 +4°C° 0 mm 2 mps 624 mmHg 92%
    23:00 +3°C° 0 mm 2 mps 624 mmHg 92%

    Pasado mañana, 25 Octubre, Viernes

    Tiempo Temperatura Precipitaciones Viento Presión Humedad
    00:00 +3°C° 0 mm 2 mps 624 mmHg 93%
    01:00 +3°C° 0 mm 2 mps 624 mmHg 93%
    02:00 +3°C° 0 mm 2 mps 624 mmHg 93%
    03:00 +3°C° 0 mm 2 mps 624 mmHg 93%
    04:00 +2°C° 0 mm 2 mps 624 mmHg 91%
    05:00 +2°C° 0 mm 2 mps 624 mmHg 89%
    06:00 +2°C° 0 mm 2 mps 624 mmHg 87%
    07:00 +4°C° 0 mm 2 mps 625 mmHg 77%
    08:00 +6°C° 0 mm 2 mps 626 mmHg 68%
    09:00 +9°C° 0 mm 2 mps 627 mmHg 58%
    10:00 +10°C° 0 mm 2 mps 628 mmHg 52%
    11:00 +13°C° 0 mm 1 mps 628 mmHg 45%
    12:00 +14°C° 0 mm 1 mps 628 mmHg 39%
    13:00 +14°C° 0 mm 1 mps 628 mmHg 42%
    14:00 +13°C° 0 mm 1 mps 627 mmHg 45%
    15:00 +13°C° 0 mm 1 mps 627 mmHg 48%
    16:00 +11°C° 0 mm 1 mps 626 mmHg 52%
    17:00 +9°C° 0 mm 1 mps 625 mmHg 57%
    18:00 +7°C° 0 mm 1 mps 625 mmHg 61%
    19:00 +7°C° 0 mm 1 mps 625 mmHg 57%
    20:00 +7°C° 0 mm 1 mps 625 mmHg 53%
    21:00 +6°C° 0 mm 2 mps 625 mmHg 50%
    22:00 +6°C° 0 mm 2 mps 625 mmHg 49%
    23:00 +6°C° 0 mm 2 mps 625 mmHg 48%

    26 Octubre, Sábado

    Tiempo Temperatura Precipitaciones Viento Presión Humedad
    00:00 +6°C° 0 mm 2 mps 625 mmHg 48%
    01:00 +6°C° 0 mm 2 mps 625 mmHg 48%
    02:00 +7°C° 0 mm 1 mps 624 mmHg 48%
    03:00 +7°C° 0 mm 1 mps 624 mmHg 48%
    04:00 +7°C° 0 mm 1 mps 624 mmHg 48%
    05:00 +6°C° 0 mm 1 mps 624 mmHg 49%
    06:00 +6°C° 0 mm 1 mps 624 mmHg 49%
    07:00 +9°C° 0 mm 1 mps 625 mmHg 47%
    08:00 +11°C° 0 mm 1 mps 627 mmHg 46%
    09:00 +12°C° 0 mm 0 mps 628 mmHg 44%
    10:00 +14°C° 0 mm 1 mps 628 mmHg 43%
    11:00 +15°C° 0 mm 1 mps 628 mmHg 41%
    12:00 +16°C° 0 mm 1 mps 629 mmHg 40%
    13:00 +16°C° 0 mm 1 mps 628 mmHg 44%
    14:00 +15°C° 0 mm 1 mps 628 mmHg 47%
    15:00 +15°C° 0 mm 1 mps 627 mmHg 51%
    16:00 +12°C° 0 mm 1 mps 627 mmHg 60%
    17:00 +10°C° 0 mm 1 mps 626 mmHg 68%
    18:00 +8°C° 0 mm 1 mps 625 mmHg 76%
    19:00 +8°C° 0 mm 1 mps 625 mmHg 76%
    20:00 +8°C° 0 mm 1 mps 625 mmHg 75%
    21:00 +7°C° 0 mm 1 mps 625 mmHg 75%
    22:00 +7°C° 0 mm 1 mps 625 mmHg 75%
    23:00 +7°C° 0 mm 1 mps 625 mmHg 75%

    27 Octubre, Domingo

    Tiempo Temperatura Precipitaciones Viento Presión Humedad
    00:00 +7°C° 0 mm 1 mps 625 mmHg 75%
    01:00 +7°C° 0 mm 1 mps 625 mmHg 74%
    02:00 +7°C° 0 mm 1 mps 625 mmHg 73%
    03:00 +6°C° 0 mm 1 mps 625 mmHg 72%
    04:00 +7°C° 0 mm 1 mps 625 mmHg 70%
    05:00 +7°C° 0 mm 1 mps 625 mmHg 67%
    06:00 +7°C° 0 mm 1 mps 625 mmHg 65%
    07:00 +9°C° 0 mm 1 mps 626 mmHg 61%
    08:00 +11°C° 0 mm 1 mps 627 mmHg 58%
    09:00 +12°C° 0 mm 0 mps 628 mmHg 54%
    10:00 +14°C° 0 mm 1 mps 628 mmHg 52%
    11:00 +15°C° 0 mm 1 mps 628 mmHg 49%
    12:00 +16°C° 0 mm 1 mps 628 mmHg 47%
    13:00 +15°C° 0 mm 1 mps 628 mmHg 50%
    14:00 +15°C° 0 mm 1 mps 628 mmHg 54%
    15:00 +15°C° 0 mm 1 mps 627 mmHg 58%
    16:00 +12°C° 0 mm 1 mps 626 mmHg 66%
    17:00 +10°C° 0 mm 1 mps 626 mmHg 75%
    18:00 +8°C° 0 mm 1 mps 625 mmHg 84%
    19:00 +8°C° 0 mm 1 mps 625 mmHg 82%
    20:00 +8°C° 0 mm 1 mps 625 mmHg 81%
    21:00 +8°C° 0 mm 1 mps 625 mmHg 79%
    22:00 +7°C° 0 mm 1 mps 625 mmHg 79%
    23:00 +7°C° 0 mm 1 mps 625 mmHg 78%

    28 Octubre, Lunes

    Tiempo Temperatura Precipitaciones Viento Presión Humedad
    00:00 +7°C° 0 mm 1 mps 624 mmHg 77%
    01:00 +7°C° 0 mm 1 mps 624 mmHg 76%
    02:00 +7°C° 0 mm 1 mps 624 mmHg 74%
    03:00 +7°C° 0 mm 1 mps 624 mmHg 73%
    04:00 +7°C° 0 mm 1 mps 624 mmHg 71%
    05:00 +7°C° 0 mm 1 mps 624 mmHg 68%
    06:00 +7°C° 0 mm 1 mps 624 mmHg 66%
    07:00 +9°C° 0 mm 1 mps 625 mmHg 62%
    08:00 +11°C° 0 mm 1 mps 625 mmHg 58%
    09:00 +13°C° 0 mm 1 mps 626 mmHg 54%
    10:00 +14°C° 0 mm 1 mps 626 mmHg 52%
    11:00 +15°C° 0 mm 1 mps 627 mmHg 50%
    12:00 +16°C° 0 mm 1 mps 627 mmHg 47%
    13:00 +15°C° 0 mm 1 mps 627 mmHg 51%
    14:00 +15°C° 0 mm 1 mps 626 mmHg 54%
    15:00 +15°C° 0 mm 1 mps 626 mmHg 57%
    16:00 +13°C° 0 mm 1 mps 625 mmHg 65%
    17:00 +10°C° 0 mm 1 mps 624 mmHg 73%
    18:00 +8°C° 0 mm 1 mps 623 mmHg 80%
    19:00 +8°C° 0 mm 1 mps 624 mmHg 79%
    20:00 +8°C° 0 mm 1 mps 624 mmHg 77%
    21:00 +8°C° 0 mm 1 mps 624 mmHg 75%
    22:00 +8°C° 0 mm 1 mps 624 mmHg 74%
    23:00 +8°C° 0 mm 1 mps 624 mmHg 73%

    29 Octubre, Martes

    Tiempo Temperatura Precipitaciones Viento Presión Humedad
    00:00 +8°C° 0 mm 1 mps 624 mmHg 72%
    01:00 +8°C° 0 mm 1 mps 623 mmHg 70%
    02:00 +8°C° 0 mm 1 mps 623 mmHg 68%
    03:00 +8°C° 0 mm 1 mps 623 mmHg 67%
    04:00 +8°C° 0 mm 1 mps 623 mmHg 64%
    05:00 +8°C° 0 mm 1 mps 623 mmHg 62%
    06:00 +8°C° 0 mm 1 mps 623 mmHg 60%
    07:00 +9°C° 0 mm 1 mps 624 mmHg 58%
    08:00 +10°C° 0 mm 0 mps 625 mmHg 55%
    09:00 +12°C° 0 mm 0 mps 626 mmHg 53%
    10:00 +12°C° 0 mm 0 mps 626 mmHg 52%
    11:00 +14°C° 0 mm 1 mps 627 mmHg 50%
    12:00 +15°C° 0 mm 1 mps 627 mmHg 49%
    13:00 +14°C° 0 mm 1 mps 627 mmHg 54%
    14:00 +14°C° 0 mm 1 mps 626 mmHg 59%
    15:00 +13°C° 0 mm 1 mps 626 mmHg 63%
    16:00 +12°C° 0 mm 1 mps 626 mmHg 71%
    17:00 +10°C° 0 mm 1 mps 625 mmHg 78%
    18:00 +8°C° 0 mm 1 mps 625 mmHg 86%
    19:00 +8°C° 0 mm 1 mps 625 mmHg 84%
    20:00 +8°C° 0 mm 1 mps 625 mmHg 82%
    21:00 +8°C° 0 mm 1 mps 626 mmHg 80%
    22:00 +8°C° 0 mm 1 mps 626 mmHg 79%
    23:00 +8°C° 0 mm 1 mps 626 mmHg 77%
    Mostrar más